| time (UTC) | temp F | wind direction | speed MPH | gust MPH | rain 1hr in | rain 24hr in | rain mn in | humidity % | barometer mb |
| 20260506151555 | 44 | 213 | 6.0 | 10.0 | 0.00 | 0.09 | 0.00 | 75 | 1007.9 |
| 20260506150057 | 43 | 211 | 7.0 | 13.0 | 0.00 | 0.09 | 0.00 | 74 | 1007.8 |
| 20260506144603 | 42 | 213 | 7.0 | 10.0 | 0.00 | 0.09 | 0.00 | 76 | 1007.6 |
| 20260506143046 | 41 | 213 | 5.0 | 11.0 | 0.00 | 0.09 | 0.00 | 80 | 1007.4 |
| 20260506141543 | 39 | 225 | 4.0 | 8.0 | 0.00 | 0.09 | 0.00 | 83 | 1007.3 |
| 20260506140041 | 38 | 225 | 4.0 | 9.0 | 0.00 | 0.09 | 0.00 | 84 | 1007.5 |
| 20260506134537 | 38 | 225 | 3.0 | 6.0 | 0.00 | 0.09 | 0.00 | 85 | 1007.2 |
| 20260506133040 | 38 | 225 | 4.0 | 7.0 | 0.00 | 0.09 | 0.00 | 85 | 1007.1 |
| 20260506131533 | 37 | 225 | 3.0 | 6.0 | 0.00 | 0.09 | 0.00 | 85 | 1006.8 |
| 20260506130029 | 36 | 225 | 4.0 | 8.0 | 0.00 | 0.09 | 0.00 | 85 | 1006.6 |
| 20260506124527 | 36 | 225 | 5.0 | 9.0 | 0.00 | 0.09 | 0.00 | 85 | 1006.4 |
| 20260506123026 | 36 | 229 | 2.0 | 9.0 | 0.00 | 0.09 | 0.00 | 87 | 1006.3 |
| 20260506121527 | 35 | 231 | 1.0 | 4.0 | 0.00 | 0.09 | 0.00 | 87 | 1006.0 |
| 20260506120027 | 35 | 231 | 3.0 | 5.0 | 0.00 | 0.09 | 0.00 | 86 | 1005.8 |
| 20260506114516 | 36 | 232 | 1.0 | 6.0 | 0.00 | 0.09 | 0.00 | 85 | 1005.4 |
| 20260506113016 | 36 | 232 | 2.0 | 7.0 | 0.00 | 0.09 | 0.00 | 85 | 1005.4 |
| 20260506111514 | 36 | 231 | 5.0 | 11.0 | 0.00 | 0.09 | 0.00 | 85 | 1004.9 |
| 20260506110013 | 37 | 227 | 2.0 | 5.0 | 0.00 | 0.09 | 0.00 | 83 | 1005.3 |
| 20260506104509 | 37 | 227 | 3.0 | 7.0 | 0.00 | 0.09 | 0.00 | 83 | 1005.1 |
| 20260506103006 | 37 | 227 | 3.0 | 7.0 | 0.00 | 0.09 | 0.00 | 82 | 1005.0 |
| 20260506101505 | 37 | 227 | 0.0 | 5.0 | 0.00 | 0.09 | 0.00 | 82 | 1004.9 |
| 20260506100004 | 37 | 227 | 2.0 | 5.0 | 0.00 | 0.09 | 0.00 | 84 | 1004.8 |
| 20260506094615 | 37 | 227 | 1.0 | 3.0 | 0.00 | 0.09 | 0.00 | 85 | 1004.7 |
| 20260506093100 | 38 | 227 | 3.0 | 9.0 | 0.00 | 0.09 | 0.00 | 86 | 1004.6 |
| 20260506091559 | 38 | 228 | 1.0 | 7.0 | 0.00 | 0.09 | 0.00 | 87 | 1004.5 |
| 20260506090100 | 38 | 228 | 0.0 | 3.0 | 0.00 | 0.09 | 0.00 | 89 | 1004.4 |
| 20260506084559 | 38 | 228 | 1.0 | 3.0 | 0.00 | 0.09 | 0.00 | 89 | 1004.2 |
| 20260506083100 | 38 | 228 | 1.0 | 4.0 | 0.00 | 0.09 | 0.00 | 90 | 1004.1 |
| 20260506081554 | 38 | 228 | 2.0 | 6.0 | 0.00 | 0.09 | 0.00 | 90 | 1004.0 |
| 20260506080106 | 38 | 228 | 4.0 | 7.0 | 0.00 | 0.09 | 0.00 | 90 | 1004.2 |
| 20260506073102 | 39 | 228 | 1.0 | 4.0 | 0.00 | 0.09 | 0.00 | 89 | 1004.4 |
| 20260506071548 | 39 | 228 | 0.0 | 2.0 | 0.00 | 0.09 | 0.00 | 89 | 1004.1 |
| 20260506061538 | 39 | 228 | 1.0 | 3.0 | 0.00 | 0.09 | 0.00 | 88 | 1003.4 |
| 20260506044539 | 41 | 201 | 2.0 | 8.0 | 0.01 | 0.08 | 0.08 | 91 | 1003.9 |
| 20260506043028 | 40 | 321 | 0.0 | 3.0 | 0.00 | 0.07 | 0.07 | 90 | 1002.9 |
| 20260506041538 | 40 | 321 | 1.0 | 4.0 | 0.00 | 0.07 | 0.07 | 90 | 1002.2 |
| 20260506040032 | 40 | 321 | 2.0 | 6.0 | 0.01 | 0.07 | 0.07 | 90 | 1002.2 |
| 20260506034531 | 40 | 321 | 2.0 | 7.0 | 0.04 | 0.07 | 0.07 | 89 | 1002.3 |
| 20260506033025 | 40 | 321 | 4.0 | 7.0 | 0.06 | 0.07 | 0.07 | 89 | 1002.4 |
| 20260506031520 | 41 | 306 | 7.0 | 15.0 | 0.06 | 0.07 | 0.07 | 87 | 1002.3 |
| 20260506030016 | 42 | 346 | 4.0 | 9.0 | 0.05 | 0.06 | 0.06 | 85 | 1001.8 |
| 20260506024517 | 44 | 281 | 7.0 | 14.0 | 0.01 | 0.02 | 0.02 | 83 | 1001.8 |
| 20260506023016 | 44 | 331 | 4.0 | 8.0 | 0.01 | 0.01 | 0.01 | 79 | 1000.0 |
| 20260506021508 | 44 | 330 | 2.0 | 7.0 | 0.01 | 0.01 | 0.01 | 82 | 999.7 |
| 20260506020007 | 44 | 330 | 1.0 | 5.0 | 0.01 | 0.01 | 0.01 | 81 | 999.8 |
| 20260506014503 | 45 | 330 | 3.0 | 9.0 | 0.01 | 0.01 | 0.01 | 76 | 999.4 |
| 20260506013105 | 50 | 267 | 10.0 | 18.0 | 0.00 | 0.00 | 0.00 | 62 | 1000.0 |
| 20260506011622 | 53 | 227 | 3.0 | 8.0 | 0.00 | 0.00 | 0.00 | 48 | 998.3 |
| 20260506010119 | 54 | 227 | 3.0 | 10.0 | 0.00 | 0.00 | 0.00 | 47 | 997.9 |
| 20260506004557 | 55 | 230 | 5.0 | 12.0 | 0.00 | 0.00 | 0.00 | 43 | 997.8 |
| 20260506003057 | 57 | 209 | 6.0 | 14.0 | 0.00 | 0.00 | 0.00 | 42 | 997.7 |
| 20260506001558 | 57 | 234 | 10.0 | 20.0 | 0.00 | 0.00 | 0.00 | 43 | 997.7 |
| 20260506000100 | 57 | 224 | 5.0 | 19.0 | 0.00 | 0.00 | 0.00 | 42 | 997.6 |
| 20260505234555 | 56 | 240 | 10.0 | 17.0 | 0.00 | 0.00 | 0.00 | 45 | 997.5 |
| 20260505233054 | 58 | 223 | 10.0 | 17.0 | 0.00 | 0.00 | 0.00 | 43 | 997.3 |
| 20260505231556 | 56 | 224 | 11.0 | 22.0 | 0.00 | 0.00 | 0.00 | 44 | 997.4 |
| 20260505230059 | 56 | 219 | 12.0 | 24.0 | 0.00 | 0.00 | 0.00 | 44 | 997.1 |
| 20260505224553 | 56 | 225 | 10.0 | 21.0 | 0.00 | 0.00 | 0.00 | 45 | 996.9 |
| 20260505223052 | 57 | 205 | 12.0 | 18.0 | 0.00 | 0.00 | 0.00 | 43 | 997.0 |
| 20260505221601 | 58 | 211 | 9.0 | 16.0 | 0.00 | 0.00 | 0.00 | 42 | 997.1 |
| 20260505220100 | 59 | 216 | 10.0 | 16.0 | 0.00 | 0.00 | 0.00 | 39 | 997.1 |
| 20260505214553 | 60 | 217 | 6.0 | 14.0 | 0.00 | 0.00 | 0.00 | 39 | 997.1 |
| 20260505213048 | 59 | 217 | 5.0 | 16.0 | 0.00 | 0.00 | 0.00 | 41 | 997.5 |
| 20260505211545 | 58 | 219 | 7.0 | 16.0 | 0.00 | 0.00 | 0.00 | 42 | 997.7 |
| 20260505210049 | 58 | 220 | 6.0 | 16.0 | 0.00 | 0.00 | 0.00 | 43 | 997.8 |
| 20260505204550 | 57 | 226 | 8.0 | 16.0 | 0.00 | 0.00 | 0.00 | 44 | 998.3 |
| 20260505203038 | 57 | 226 | 10.0 | 17.0 | 0.00 | 0.00 | 0.00 | 45 | 998.5 |
| 20260505201540 | 56 | 226 | 4.0 | 13.0 | 0.00 | 0.00 | 0.00 | 48 | 998.7 |
| 20260505200037 | 55 | 226 | 7.0 | 16.0 | 0.00 | 0.00 | 0.00 | 50 | 998.6 |
| 20260505194537 | 53 | 226 | 7.0 | 14.0 | 0.00 | 0.00 | 0.00 | 52 | 998.5 |
| 20260505193042 | 55 | 223 | 7.0 | 14.0 | 0.00 | 0.00 | 0.00 | 48 | 998.5 |
| 20260505191536 | 55 | 217 | 6.0 | 13.0 | 0.00 | 0.00 | 0.00 | 49 | 998.7 |
| 20260505190039 | 52 | 211 | 6.0 | 20.0 | 0.00 | 0.00 | 0.00 | 57 | 998.7 |
| 20260505184534 | 56 | 222 | 9.0 | 18.0 | 0.00 | 0.00 | 0.00 | 41 | 998.4 |
| 20260505183045 | 56 | 252 | 7.0 | 11.0 | 0.00 | 0.00 | 0.00 | 39 | 998.4 |
| 20260505181532 | 56 | 276 | 6.0 | 16.0 | 0.00 | 0.00 | 0.00 | 38 | 998.4 |
| 20260505180032 | 57 | 296 | 6.0 | 13.0 | 0.00 | 0.00 | 0.00 | 36 | 998.4 |
| 20260505174530 | 55 | 303 | 6.0 | 11.0 | 0.00 | 0.00 | 0.00 | 38 | 998.5 |
| 20260505173029 | 56 | 304 | 6.0 | 10.0 | 0.00 | 0.00 | 0.00 | 37 | 998.7 |
| 20260505171528 | 55 | 304 | 2.0 | 6.0 | 0.00 | 0.00 | 0.00 | 39 | 998.8 |
| 20260505170029 | 53 | 304 | 1.0 | 9.0 | 0.00 | 0.00 | 0.00 | 41 | 998.7 |
| 20260505164531 | 53 | 304 | 5.0 | 11.0 | 0.00 | 0.00 | 0.00 | 42 | 999.0 |
| 20260505163021 | 52 | 306 | 5.0 | 11.0 | 0.00 | 0.00 | 0.00 | 43 | 999.2 |
| 20260505161520 | 51 | 312 | 6.0 | 9.0 | 0.00 | 0.00 | 0.00 | 45 | 999.3 |
| 20260505153016 | 51 | 312 | 3.0 | 11.0 | 0.00 | 0.00 | 0.00 | 45 | 999.4 |